contact:dominique.lefevre@mio.osupytheas.fr, maurice.libes@osupytheas.fr, didier.mallarino@osupytheas.fr
Project:EMSO http://www.emso-fr.org/EMSO-France
Depth: 2436.0 m
Title:EMSO Ligure Ouest : Data MII capteur MICROCAT
DateTime_Computer,Latitude,Longitude,Temperature,Conductivity,Pressure,DateTime_Instrument
DateTime_Computer,Latitude,Longitude,degC,S m-1,dbar,DateTime_Instrument
2024-05-08T00:00:08Z,42.805,6.029,13.3039,4.60130,2470.73,2024-5-08T02:02:50Z
2024-05-08T00:03:11Z,42.805,6.029,13.3042,4.60130,2470.763,2024-5-08T02:05:53Z
2024-05-08T00:06:14Z,42.805,6.029,13.3039,4.60130,2470.754,2024-5-08T02:08:56Z
2024-05-08T00:09:17Z,42.805,6.029,13.3040,4.60129,2470.754,2024-5-08T02:11:59Z
2024-05-08T00:12:20Z,42.805,6.029,13.3041,4.60130,2470.773,2024-5-08T02:15:02Z
2024-05-08T00:15:23Z,42.805,6.029,13.3039,4.60131,2470.717,2024-5-08T02:18:05Z
2024-05-08T00:18:26Z,42.805,6.029,13.3043,4.60130,2470.763,2024-5-08T02:21:08Z
2024-05-08T00:21:29Z,42.805,6.029,13.3042,4.60132,2470.768,2024-5-08T02:24:11Z
2024-05-08T00:24:32Z,42.805,6.029,13.3039,4.60130,2470.763,2024-5-08T02:27:14Z
2024-05-08T00:27:35Z,42.805,6.029,13.3041,4.60130,2470.754,2024-5-08T02:30:17Z
2024-05-08T00:30:38Z,42.805,6.029,13.3039,4.60130,2470.787,2024-5-08T02:33:21Z
2024-05-08T00:33:42Z,42.805,6.029,13.3036,4.60131,2470.777,2024-5-08T02:36:24Z
2024-05-08T00:36:45Z,42.805,6.029,13.3036,4.60131,2470.763,2024-5-08T02:39:27Z
2024-05-08T00:39:48Z,42.805,6.029,13.3037,4.60131,2470.717,2024-5-08T02:42:30Z
2024-05-08T00:42:51Z,42.805,6.029,13.3039,4.60129,2470.74,2024-5-08T02:45:33Z
2024-05-08T00:45:54Z,42.805,6.029,13.3038,4.60131,2470.717,2024-5-08T02:48:36Z
2024-05-08T00:48:57Z,42.805,6.029,13.3041,4.60130,2470.73,2024-5-08T02:51:39Z
2024-05-08T00:52:00Z,42.805,6.029,13.3039,4.60132,2470.754,2024-5-08T02:54:42Z
2024-05-08T00:55:03Z,42.805,6.029,13.3041,4.60130,2470.74,2024-5-08T02:57:45Z
2024-05-08T00:58:06Z,42.805,6.029,13.3040,4.60131,2470.73,2024-5-08T03:00:48Z
2024-05-08T01:01:09Z,42.805,6.029,13.3037,4.60135,2470.717,2024-5-08T03:03:51Z
2024-05-08T01:04:12Z,42.805,6.029,13.3043,4.60131,2470.74,2024-5-08T03:06:54Z
2024-05-08T01:07:15Z,42.805,6.029,13.3041,4.60131,2470.73,2024-5-08T03:09:57Z
2024-05-08T01:10:18Z,42.805,6.029,13.3043,4.60132,2470.754,2024-5-08T03:13:01Z
2024-05-08T01:13:22Z,42.805,6.029,13.3040,4.60132,2470.693,2024-5-08T03:16:04Z
2024-05-08T01:16:25Z,42.805,6.029,13.3036,4.60129,2470.717,2024-5-08T03:19:07Z
2024-05-08T01:19:28Z,42.805,6.029,13.3041,4.60130,2470.73,2024-5-08T03:22:10Z
2024-05-08T01:22:31Z,42.805,6.029,13.3041,4.60130,2470.73,2024-5-08T03:25:13Z
2024-05-08T01:25:34Z,42.805,6.029,13.3036,4.60131,2470.73,2024-5-08T03:28:16Z
2024-05-08T01:28:37Z,42.805,6.029,13.3034,4.60131,2470.707,2024-5-08T03:31:19Z
2024-05-08T01:31:40Z,42.805,6.029,13.3039,4.60129,2470.74,2024-5-08T03:34:22Z
2024-05-08T01:34:43Z,42.805,6.029,13.3040,4.60130,2470.717,2024-5-08T03:37:25Z
2024-05-08T01:37:46Z,42.805,6.029,13.3036,4.60129,2470.73,2024-5-08T03:40:28Z
2024-05-08T01:40:49Z,42.805,6.029,13.3041,4.60130,2470.74,2024-5-08T03:43:31Z
2024-05-08T01:43:52Z,42.805,6.029,13.3040,4.60130,2470.693,2024-5-08T03:46:34Z
2024-05-08T01:46:55Z,42.805,6.029,13.3042,4.60131,2470.73,2024-5-08T03:49:38Z
2024-05-08T01:49:58Z,42.805,6.029,13.3038,4.60131,2470.707,2024-5-08T03:52:41Z
2024-05-08T01:53:02Z,42.805,6.029,13.3041,4.60130,2470.73,2024-5-08T03:55:44Z
2024-05-08T01:56:05Z,42.805,6.029,13.3042,4.60130,2470.693,2024-5-08T03:58:47Z
2024-05-08T01:59:08Z,42.805,6.029,13.3039,4.60130,2470.693,2024-5-08T04:01:50Z
2024-05-08T02:02:11Z,42.805,6.029,13.3042,4.60130,2470.707,2024-5-08T04:04:53Z
2024-05-08T02:05:14Z,42.805,6.029,13.3041,4.60129,2470.707,2024-5-08T04:07:56Z
2024-05-08T02:08:17Z,42.805,6.029,13.3041,4.60129,2470.717,2024-5-08T04:10:59Z
2024-05-08T02:11:20Z,42.805,6.029,13.3042,4.60132,2470.73,2024-5-08T04:14:02Z
2024-05-08T02:14:23Z,42.805,6.029,13.3039,4.60130,2470.717,2024-5-08T04:17:05Z
2024-05-08T02:17:26Z,42.805,6.029,13.3041,4.60130,2470.693,2024-5-08T04:20:09Z
2024-05-08T02:20:30Z,42.805,6.029,13.3039,4.60130,2470.74,2024-5-08T04:23:12Z
2024-05-08T02:23:33Z,42.805,6.029,13.3039,4.60130,2470.693,2024-5-08T04:26:15Z
2024-05-08T02:26:36Z,42.805,6.029,13.3040,4.60129,2470.707,2024-5-08T04:29:18Z
2024-05-08T02:29:39Z,42.805,6.029,13.3043,4.60129,2470.693,2024-5-08T04:32:21Z
2024-05-08T02:32:42Z,42.805,6.029,13.3040,4.60129,2470.693,2024-5-08T04:35:24Z
2024-05-08T02:35:45Z,42.805,6.029,13.3037,4.60130,2470.74,2024-5-08T04:38:27Z
2024-05-08T02:38:48Z,42.805,6.029,13.3040,4.60129,2470.693,2024-5-08T04:41:30Z
2024-05-08T02:41:51Z,42.805,6.029,13.3038,4.60129,2470.717,2024-5-08T04:44:33Z
2024-05-08T02:44:54Z,42.805,6.029,13.3036,4.60129,2470.717,2024-5-08T04:47:36Z
2024-05-08T02:47:57Z,42.805,6.029,13.3039,4.60129,2470.717,2024-5-08T04:50:39Z
2024-05-08T02:51:00Z,42.805,6.029,13.3036,4.60129,2470.693,2024-5-08T04:53:42Z
2024-05-08T02:54:03Z,42.805,6.029,13.3039,4.60129,2470.754,2024-5-08T04:56:46Z
2024-05-08T02:57:07Z,42.805,6.029,13.3043,4.60129,2470.717,2024-5-08T04:59:49Z
2024-05-08T03:00:10Z,42.805,6.029,13.3040,4.60129,2470.754,2024-5-08T05:02:52Z
2024-05-08T03:03:13Z,42.805,6.029,13.3040,4.60129,2470.73,2024-5-08T05:05:55Z
2024-05-08T03:06:16Z,42.805,6.029,13.3041,4.60129,2470.74,2024-5-08T05:08:58Z
2024-05-08T03:09:19Z,42.805,6.029,13.3039,4.60129,2470.74,2024-5-08T05:12:01Z
2024-05-08T03:12:22Z,42.805,6.029,13.3041,4.60129,2470.717,2024-5-08T05:15:04Z
2024-05-08T03:15:25Z,42.805,6.029,13.3043,4.60129,2470.717,2024-5-08T05:18:07Z
2024-05-08T03:18:28Z,42.805,6.029,13.3042,4.60130,2470.763,2024-5-08T05:21:10Z
2024-05-08T03:21:31Z,42.805,6.029,13.3042,4.60129,2470.763,2024-5-08T05:24:13Z
2024-05-08T03:24:34Z,42.805,6.029,13.3039,4.60129,2470.754,2024-5-08T05:27:16Z
2024-05-08T03:27:37Z,42.805,6.029,13.3038,4.60129,2470.754,2024-5-08T05:30:19Z
2024-05-08T03:30:40Z,42.805,6.029,13.3043,4.60130,2470.74,2024-5-08T05:33:22Z
2024-05-08T03:33:43Z,42.805,6.029,13.3038,4.60129,2470.74,2024-5-08T05:36:26Z
2024-05-08T03:36:47Z,42.805,6.029,13.3040,4.60129,2470.763,2024-5-08T05:39:29Z
2024-05-08T03:39:50Z,42.805,6.029,13.3041,4.60129,2470.763,2024-5-08T05:42:32Z
2024-05-08T03:42:53Z,42.805,6.029,13.3041,4.60129,2470.777,2024-5-08T05:45:35Z
2024-05-08T03:45:56Z,42.805,6.029,13.3039,4.60128,2470.763,2024-5-08T05:48:38Z
2024-05-08T03:48:59Z,42.805,6.029,13.3038,4.60129,2470.763,2024-5-08T05:51:41Z
2024-05-08T03:52:02Z,42.805,6.029,13.3039,4.60129,2470.763,2024-5-08T05:54:44Z
2024-05-08T03:55:05Z,42.805,6.029,13.3043,4.60128,2470.777,2024-5-08T05:57:47Z
2024-05-08T03:58:08Z,42.805,6.029,13.3037,4.60129,2470.787,2024-5-08T06:00:50Z
2024-05-08T04:01:10Z,42.805,6.029,13.3041,4.60129,2470.833,2024-5-08T06:03:52Z
2024-05-08T04:04:13Z,42.805,6.029,13.3041,4.60129,2470.777,2024-5-08T06:06:55Z
2024-05-08T04:07:16Z,42.805,6.029,13.3042,4.60129,2470.824,2024-5-08T06:09:58Z
2024-05-08T04:10:19Z,42.805,6.029,13.3039,4.60129,2470.81,2024-5-08T06:13:01Z
2024-05-08T04:13:22Z,42.805,6.029,13.3042,4.60129,2470.824,2024-5-08T06:16:04Z
2024-05-08T04:16:25Z,42.805,6.029,13.3039,4.60129,2470.81,2024-5-08T06:19:07Z
2024-05-08T04:19:28Z,42.805,6.029,13.3041,4.60132,2470.81,2024-5-08T06:22:11Z
2024-05-08T04:22:32Z,42.805,6.029,13.3040,4.60129,2470.824,2024-5-08T06:25:14Z
2024-05-08T04:25:35Z,42.805,6.029,13.3036,4.60130,2470.824,2024-5-08T06:28:17Z
2024-05-08T04:28:38Z,42.805,6.029,13.3041,4.60129,2470.833,2024-5-08T06:31:20Z
2024-05-08T04:31:41Z,42.805,6.029,13.3041,4.60129,2470.833,2024-5-08T06:34:23Z
2024-05-08T04:34:44Z,42.805,6.029,13.3041,4.60128,2470.81,2024-5-08T06:37:26Z
2024-05-08T04:37:47Z,42.805,6.029,13.3041,4.60128,2470.81,2024-5-08T06:40:29Z
2024-05-08T04:40:50Z,42.805,6.029,13.3041,4.60128,2470.857,2024-5-08T06:43:32Z
2024-05-08T04:43:53Z,42.805,6.029,13.3039,4.60130,2470.833,2024-5-08T06:46:35Z
2024-05-08T04:46:56Z,42.805,6.029,13.3041,4.60128,2470.857,2024-5-08T06:49:38Z
2024-05-08T04:49:59Z,42.805,6.029,13.3042,4.60130,2470.857,2024-5-08T06:52:41Z
2024-05-08T04:53:02Z,42.805,6.029,13.3039,4.60129,2470.833,2024-5-08T06:55:44Z
2024-05-08T04:56:05Z,42.805,6.029,13.3043,4.60131,2470.847,2024-5-08T06:58:47Z
2024-05-08T04:59:08Z,42.805,6.029,13.3040,4.60131,2470.857,2024-5-08T07:01:51Z
2024-05-08T05:02:12Z,42.805,6.029,13.3041,4.60129,2470.857,2024-5-08T07:04:54Z
2024-05-08T05:05:15Z,42.805,6.029,13.3043,4.60130,2470.833,2024-5-08T07:07:57Z
2024-05-08T05:08:18Z,42.805,6.029,13.3041,4.60129,2470.857,2024-5-08T07:11:00Z
2024-05-08T05:11:21Z,42.805,6.029,13.3037,4.60129,2470.857,2024-5-08T07:14:03Z
2024-05-08T05:14:24Z,42.805,6.029,13.3038,4.60129,2470.88,2024-5-08T07:17:06Z
2024-05-08T05:17:27Z,42.805,6.029,13.3040,4.60132,2470.857,2024-5-08T07:20:09Z
2024-05-08T05:20:30Z,42.805,6.029,13.3043,4.60130,2470.857,2024-5-08T07:23:12Z
2024-05-08T05:23:33Z,42.805,6.029,13.3041,4.60130,2470.88,2024-5-08T07:26:15Z
2024-05-08T05:26:36Z,42.805,6.029,13.3040,4.60129,2470.857,2024-5-08T07:29:18Z
2024-05-08T05:29:39Z,42.805,6.029,13.3041,4.60130,2470.894,2024-5-08T07:32:21Z
2024-05-08T05:32:42Z,42.805,6.029,13.3043,4.60131,2470.871,2024-5-08T07:35:24Z
2024-05-08T05:35:45Z,42.805,6.029,13.3041,4.60132,2470.88,2024-5-08T07:38:27Z
2024-05-08T05:38:48Z,42.805,6.029,13.3039,4.60131,2470.871,2024-5-08T07:41:31Z
2024-05-08T05:41:52Z,42.805,6.029,13.3041,4.60131,2470.857,2024-5-08T07:44:34Z
2024-05-08T05:44:55Z,42.805,6.029,13.3039,4.60131,2470.88,2024-5-08T07:47:37Z
2024-05-08T05:47:58Z,42.805,6.029,13.3039,4.60132,2470.917,2024-5-08T07:50:40Z
2024-05-08T05:51:01Z,42.805,6.029,13.3040,4.60131,2470.917,2024-5-08T07:53:43Z
2024-05-08T05:54:04Z,42.805,6.029,13.3044,4.60132,2470.904,2024-5-08T07:56:46Z
2024-05-08T05:57:07Z,42.805,6.029,13.3043,4.60130,2470.927,2024-5-08T07:59:49Z
2024-05-08T06:00:10Z,42.805,6.029,13.3040,4.60131,2470.904,2024-5-08T08:02:52Z
2024-05-08T06:03:15Z,42.805,6.029,13.3042,4.60130,2470.894,2024-5-08T08:05:57Z
2024-05-08T06:06:18Z,42.805,6.029,13.3041,4.60131,2470.904,2024-5-08T08:09:00Z
2024-05-08T06:09:21Z,42.805,6.029,13.3040,4.60129,2470.917,2024-5-08T08:12:03Z
2024-05-08T06:12:24Z,42.805,6.029,13.3042,4.60131,2470.904,2024-5-08T08:15:06Z
2024-05-08T06:15:27Z,42.805,6.029,13.3041,4.60131,2470.917,2024-5-08T08:18:09Z
2024-05-08T06:18:30Z,42.805,6.029,13.3041,4.60130,2470.917,2024-5-08T08:21:12Z
2024-05-08T06:21:33Z,42.805,6.029,13.3043,4.60130,2470.904,2024-5-08T08:24:16Z
2024-05-08T06:24:37Z,42.805,6.029,13.3041,4.60132,2470.917,2024-5-08T08:27:19Z
2024-05-08T06:27:40Z,42.805,6.029,13.3041,4.60132,2470.857,2024-5-08T08:30:22Z
2024-05-08T06:30:43Z,42.805,6.029,13.3042,4.60130,2470.904,2024-5-08T08:33:25Z
2024-05-08T06:33:46Z,42.805,6.029,13.3041,4.60129,2470.904,2024-5-08T08:36:28Z
2024-05-08T06:36:49Z,42.805,6.029,13.3043,4.60129,2470.917,2024-5-08T08:39:31Z
2024-05-08T06:39:52Z,42.805,6.029,13.3042,4.60130,2470.94,2024-5-08T08:42:34Z
2024-05-08T06:42:55Z,42.805,6.029,13.3037,4.60130,2470.904,2024-5-08T08:45:37Z
2024-05-08T06:45:58Z,42.805,6.029,13.3042,4.60131,2470.904,2024-5-08T08:48:40Z
2024-05-08T06:49:01Z,42.805,6.029,13.3039,4.60129,2470.927,2024-5-08T08:51:43Z
2024-05-08T06:52:04Z,42.805,6.029,13.3039,4.60131,2470.904,2024-5-08T08:54:46Z
2024-05-08T06:55:07Z,42.805,6.029,13.3042,4.60131,2470.88,2024-5-08T08:57:49Z
2024-05-08T06:58:10Z,42.805,6.029,13.3039,4.60130,2470.94,2024-5-08T09:00:52Z
2024-05-08T07:01:13Z,42.805,6.029,13.3040,4.60132,2470.917,2024-5-08T09:03:56Z
2024-05-08T07:04:17Z,42.805,6.029,13.3039,4.60131,2470.917,2024-5-08T09:06:59Z
2024-05-08T07:07:20Z,42.805,6.029,13.3043,4.60129,2470.894,2024-5-08T09:10:02Z
2024-05-08T07:10:23Z,42.805,6.029,13.3039,4.60129,2470.917,2024-5-08T09:13:05Z
2024-05-08T07:13:26Z,42.805,6.029,13.3038,4.60129,2470.904,2024-5-08T09:16:08Z
2024-05-08T07:16:29Z,42.805,6.029,13.3037,4.60130,2470.904,2024-5-08T09:19:11Z
2024-05-08T07:19:32Z,42.805,6.029,13.3036,4.60129,2470.917,2024-5-08T09:22:14Z
2024-05-08T07:22:35Z,42.805,6.029,13.3039,4.60129,2470.904,2024-5-08T09:25:17Z
2024-05-08T07:25:38Z,42.805,6.029,13.3039,4.60129,2470.904,2024-5-08T09:28:20Z
2024-05-08T07:28:41Z,42.805,6.029,13.3040,4.60130,2470.964,2024-5-08T09:31:23Z
2024-05-08T07:31:44Z,42.805,6.029,13.3038,4.60130,2470.88,2024-5-08T09:34:26Z
2024-05-08T07:34:47Z,42.805,6.029,13.3041,4.60129,2470.904,2024-5-08T09:37:29Z
2024-05-08T07:37:50Z,42.805,6.029,13.3042,4.60129,2470.917,2024-5-08T09:40:32Z
2024-05-08T07:40:53Z,42.805,6.029,13.3039,4.60132,2470.917,2024-5-08T09:43:36Z
2024-05-08T07:43:57Z,42.805,6.029,13.3041,4.60129,2470.904,2024-5-08T09:46:39Z
2024-05-08T07:47:00Z,42.805,6.029,13.3039,4.60129,2470.894,2024-5-08T09:49:42Z
2024-05-08T07:50:03Z,42.805,6.029,13.3043,4.60128,2470.894,2024-5-08T09:52:45Z
2024-05-08T07:53:06Z,42.805,6.029,13.3040,4.60129,2470.857,2024-5-08T09:55:48Z
2024-05-08T07:56:09Z,42.805,6.029,13.3039,4.60129,2470.894,2024-5-08T09:58:51Z
2024-05-08T07:59:12Z,42.805,6.029,13.3041,4.60131,2470.857,2024-5-08T10:01:54Z
2024-05-08T08:02:14Z,42.805,6.029,13.3044,4.60129,2470.894,2024-5-08T10:04:56Z
2024-05-08T08:05:17Z,42.805,6.029,13.3041,4.60129,2470.871,2024-5-08T10:07:59Z
2024-05-08T08:08:20Z,42.805,6.029,13.3039,4.60130,2470.904,2024-5-08T10:11:02Z
2024-05-08T08:11:23Z,42.805,6.029,13.3041,4.60128,2470.857,2024-5-08T10:14:05Z
2024-05-08T08:14:26Z,42.805,6.029,13.3038,4.60129,2470.894,2024-5-08T10:17:09Z
2024-05-08T08:17:30Z,42.805,6.029,13.3041,4.60132,2470.857,2024-5-08T10:20:12Z
2024-05-08T08:20:33Z,42.805,6.029,13.3042,4.60130,2470.904,2024-5-08T10:23:15Z
2024-05-08T08:23:36Z,42.805,6.029,13.3043,4.60132,2470.894,2024-5-08T10:26:18Z
2024-05-08T08:26:39Z,42.805,6.029,13.3043,4.60129,2470.857,2024-5-08T10:29:21Z
2024-05-08T08:29:42Z,42.805,6.029,13.3041,4.60129,2470.871,2024-5-08T10:32:24Z
2024-05-08T08:32:45Z,42.805,6.029,13.3040,4.60129,2470.857,2024-5-08T10:35:27Z
2024-05-08T08:35:48Z,42.805,6.029,13.3041,4.60130,2470.894,2024-5-08T10:38:30Z
2024-05-08T08:38:51Z,42.805,6.029,13.3042,4.60129,2470.894,2024-5-08T10:41:33Z
2024-05-08T08:41:54Z,42.805,6.029,13.3041,4.60128,2470.88,2024-5-08T10:44:36Z
2024-05-08T08:44:57Z,42.805,6.029,13.3041,4.60130,2470.833,2024-5-08T10:47:39Z
2024-05-08T08:48:00Z,42.805,6.029,13.3040,4.60132,2470.857,2024-5-08T10:50:42Z
2024-05-08T08:51:03Z,42.805,6.029,13.3042,4.60131,2470.847,2024-5-08T10:53:46Z
2024-05-08T08:54:07Z,42.805,6.029,13.3042,4.60131,2470.833,2024-5-08T10:56:49Z
2024-05-08T08:57:10Z,42.805,6.029,13.3042,4.60131,2470.857,2024-5-08T10:59:52Z
2024-05-08T09:00:13Z,42.805,6.029,13.3043,4.60132,2470.833,2024-5-08T11:02:55Z
2024-05-08T09:03:16Z,42.805,6.029,13.3039,4.60129,2470.833,2024-5-08T11:05:58Z
2024-05-08T09:06:19Z,42.805,6.029,13.3041,4.60131,2470.81,2024-5-08T11:09:01Z
2024-05-08T09:09:22Z,42.805,6.029,13.3039,4.60132,2470.871,2024-5-08T11:12:04Z
2024-05-08T09:12:25Z,42.805,6.029,13.3043,4.60129,2470.857,2024-5-08T11:15:07Z
2024-05-08T09:15:28Z,42.805,6.029,13.3039,4.60130,2470.857,2024-5-08T11:18:10Z
2024-05-08T09:18:31Z,42.805,6.029,13.3042,4.60130,2470.847,2024-5-08T11:21:13Z
2024-05-08T09:21:34Z,42.805,6.029,13.3038,4.60132,2470.833,2024-5-08T11:24:16Z
2024-05-08T09:24:37Z,42.805,6.029,13.3039,4.60131,2470.833,2024-5-08T11:27:19Z
2024-05-08T09:27:40Z,42.805,6.029,13.3041,4.60131,2470.857,2024-5-08T11:30:23Z
2024-05-08T09:30:44Z,42.805,6.029,13.3041,4.60128,2470.857,2024-5-08T11:33:26Z
2024-05-08T09:33:47Z,42.805,6.029,13.3039,4.60129,2470.824,2024-5-08T11:36:29Z
2024-05-08T09:36:50Z,42.805,6.029,13.3043,4.60129,2470.824,2024-5-08T11:39:32Z
2024-05-08T09:39:53Z,42.805,6.029,13.3041,4.60129,2470.787,2024-5-08T11:42:35Z
2024-05-08T09:42:56Z,42.805,6.029,13.3040,4.60131,2470.787,2024-5-08T11:45:38Z
2024-05-08T09:45:59Z,42.805,6.029,13.3039,4.60131,2470.81,2024-5-08T11:48:41Z
2024-05-08T09:49:02Z,42.805,6.029,13.3046,4.60128,2470.824,2024-5-08T11:51:44Z
2024-05-08T09:52:05Z,42.805,6.029,13.3043,4.60129,2470.787,2024-5-08T11:54:47Z
2024-05-08T09:55:08Z,42.805,6.029,13.3039,4.60129,2470.81,2024-5-08T11:57:50Z
2024-05-08T09:58:11Z,42.805,6.029,13.3038,4.60131,2470.787,2024-5-08T12:00:53Z
2024-05-08T10:01:13Z,42.805,6.029,13.3039,4.60132,2470.763,2024-5-08T12:03:55Z
2024-05-08T10:04:16Z,42.805,6.029,13.3043,4.60129,2470.787,2024-5-08T12:06:59Z
2024-05-08T10:07:20Z,42.805,6.029,13.3039,4.60129,2470.763,2024-5-08T12:10:02Z
2024-05-08T10:10:23Z,42.805,6.029,13.3040,4.60134,2470.763,2024-5-08T12:13:05Z
2024-05-08T10:13:26Z,42.805,6.029,13.3038,4.60130,2470.777,2024-5-08T12:16:08Z
2024-05-08T10:16:29Z,42.805,6.029,13.3041,4.60129,2470.81,2024-5-08T12:19:11Z
2024-05-08T10:19:32Z,42.805,6.029,13.3041,4.60137,2470.787,2024-5-08T12:22:14Z
2024-05-08T10:22:35Z,42.805,6.029,13.3042,4.60137,2470.763,2024-5-08T12:25:17Z
2024-05-08T10:25:38Z,42.805,6.029,13.3042,4.60130,2470.8,2024-5-08T12:28:20Z
2024-05-08T10:28:41Z,42.805,6.029,13.3040,4.60134,2470.763,2024-5-08T12:31:23Z
2024-05-08T10:31:44Z,42.805,6.029,13.3041,4.60131,2470.763,2024-5-08T12:34:26Z
2024-05-08T10:34:47Z,42.805,6.029,13.3035,4.60135,2470.763,2024-5-08T12:37:29Z
2024-05-08T10:37:50Z,42.805,6.029,13.3041,4.60137,2470.763,2024-5-08T12:40:32Z
2024-05-08T10:40:53Z,42.805,6.029,13.3041,4.60135,2470.787,2024-5-08T12:43:35Z
2024-05-08T10:43:56Z,42.805,6.029,13.3042,4.60134,2470.74,2024-5-08T12:46:39Z
2024-05-08T10:47:00Z,42.805,6.029,13.3042,4.60136,2470.74,2024-5-08T12:49:42Z
2024-05-08T10:50:03Z,42.805,6.029,13.3042,4.60136,2470.754,2024-5-08T12:52:45Z
2024-05-08T10:53:06Z,42.805,6.029,13.3041,4.60135,2470.777,2024-5-08T12:55:48Z
2024-05-08T10:56:09Z,42.805,6.029,13.3040,4.60134,2470.73,2024-5-08T12:58:51Z
2024-05-08T10:59:12Z,42.805,6.029,13.3039,4.60132,2470.763,2024-5-08T13:01:54Z
2024-05-08T11:02:15Z,42.805,6.029,13.3040,4.60133,2470.74,2024-5-08T13:04:57Z
2024-05-08T11:05:18Z,42.805,6.029,13.3039,4.60132,2470.74,2024-5-08T13:08:00Z
2024-05-08T11:08:21Z,42.805,6.029,13.3037,4.60133,2470.717,2024-5-08T13:11:03Z
2024-05-08T11:11:24Z,42.805,6.029,13.3038,4.60134,2470.763,2024-5-08T13:14:06Z
2024-05-08T11:14:27Z,42.805,6.029,13.3039,4.60129,2470.726,2024-5-08T13:17:09Z
2024-05-08T11:17:30Z,42.805,6.029,13.3041,4.60132,2470.73,2024-5-08T13:20:12Z
2024-05-08T11:20:33Z,42.805,6.029,13.3038,4.60132,2470.74,2024-5-08T13:23:16Z
2024-05-08T11:23:37Z,42.805,6.029,13.3041,4.60130,2470.693,2024-5-08T13:26:19Z
2024-05-08T11:26:40Z,42.805,6.029,13.3039,4.60135,2470.717,2024-5-08T13:29:22Z
2024-05-08T11:29:43Z,42.805,6.029,13.3039,4.60132,2470.717,2024-5-08T13:32:25Z
2024-05-08T11:32:46Z,42.805,6.029,13.3039,4.60132,2470.73,2024-5-08T13:35:28Z
2024-05-08T11:35:49Z,42.805,6.029,13.3043,4.60133,2470.717,2024-5-08T13:38:31Z
2024-05-08T11:38:52Z,42.805,6.029,13.3041,4.60133,2470.693,2024-5-08T13:41:34Z
2024-05-08T11:41:55Z,42.805,6.029,13.3039,4.60133,2470.684,2024-5-08T13:44:37Z
2024-05-08T11:44:58Z,42.805,6.029,13.3045,4.60132,2470.763,2024-5-08T13:47:40Z
2024-05-08T11:48:01Z,42.805,6.029,13.3039,4.60132,2470.693,2024-5-08T13:50:43Z
2024-05-08T11:51:04Z,42.805,6.029,13.3040,4.60130,2470.707,2024-5-08T13:53:46Z
2024-05-08T11:54:07Z,42.805,6.029,13.3039,4.60130,2470.693,2024-5-08T13:56:49Z
2024-05-08T11:57:11Z,42.805,6.029,13.3042,4.60132,2470.717,2024-5-08T13:59:53Z
2024-05-08T12:00:14Z,42.805,6.029,13.3040,4.60131,2470.684,2024-5-08T14:02:56Z
2024-05-08T12:03:17Z,42.805,6.029,13.3045,4.60132,2470.693,2024-5-08T14:05:59Z
2024-05-08T12:06:20Z,42.805,6.029,13.3041,4.60132,2470.67,2024-5-08T14:09:02Z
2024-05-08T12:09:23Z,42.805,6.029,13.3042,4.60132,2470.693,2024-5-08T14:12:05Z
2024-05-08T12:12:26Z,42.805,6.029,13.3037,4.60129,2470.707,2024-5-08T14:15:08Z
2024-05-08T12:15:29Z,42.805,6.029,13.3041,4.60132,2470.693,2024-5-08T14:18:11Z
2024-05-08T12:18:32Z,42.805,6.029,13.3039,4.60132,2470.684,2024-5-08T14:21:14Z
2024-05-08T12:21:35Z,42.805,6.029,13.3042,4.60133,2470.67,2024-5-08T14:24:17Z
2024-05-08T12:24:38Z,42.805,6.029,13.3040,4.60132,2470.67,2024-5-08T14:27:20Z
2024-05-08T12:27:41Z,42.805,6.029,13.3041,4.60129,2470.693,2024-5-08T14:30:23Z
2024-05-08T12:30:44Z,42.805,6.029,13.3038,4.60128,2470.67,2024-5-08T14:33:27Z
2024-05-08T12:33:47Z,42.805,6.029,13.3039,4.60130,2470.707,2024-5-08T14:36:30Z
2024-05-08T12:36:51Z,42.805,6.029,13.3037,4.60132,2470.707,2024-5-08T14:39:33Z
2024-05-08T12:39:54Z,42.805,6.029,13.3043,4.60131,2470.67,2024-5-08T14:42:36Z
2024-05-08T12:42:57Z,42.805,6.029,13.3040,4.60130,2470.67,2024-5-08T14:45:39Z
2024-05-08T12:46:00Z,42.805,6.029,13.3036,4.60131,2470.693,2024-5-08T14:48:42Z
2024-05-08T12:49:03Z,42.805,6.029,13.3042,4.60130,2470.67,2024-5-08T14:51:45Z
2024-05-08T12:52:06Z,42.805,6.029,13.3041,4.60131,2470.693,2024-5-08T14:54:48Z
2024-05-08T12:55:09Z,42.805,6.029,13.3041,4.60131,2470.646,2024-5-08T14:57:51Z
2024-05-08T12:58:12Z,42.805,6.029,13.3040,4.60129,2470.646,2024-5-08T15:00:54Z
2024-05-08T13:01:15Z,42.805,6.029,13.3038,4.60130,2470.661,2024-5-08T15:03:57Z
2024-05-08T13:04:18Z,42.805,6.029,13.3036,4.60129,2470.661,2024-5-08T15:07:00Z
2024-05-08T13:07:21Z,42.805,6.029,13.3044,4.60130,2470.684,2024-5-08T15:10:03Z
2024-05-08T13:10:24Z,42.805,6.029,13.3039,4.60129,2470.646,2024-5-08T15:13:07Z
2024-05-08T13:13:28Z,42.805,6.029,13.3042,4.60130,2470.67,2024-5-08T15:16:10Z
2024-05-08T13:16:31Z,42.805,6.029,13.3039,4.60130,2470.646,2024-5-08T15:19:13Z
2024-05-08T13:19:34Z,42.805,6.029,13.3040,4.60129,2470.67,2024-5-08T15:22:16Z
2024-05-08T13:22:37Z,42.805,6.029,13.3039,4.60131,2470.637,2024-5-08T15:25:19Z
2024-05-08T13:25:40Z,42.805,6.029,13.3040,4.60129,2470.67,2024-5-08T15:28:22Z
2024-05-08T13:28:43Z,42.805,6.029,13.3037,4.60129,2470.661,2024-5-08T15:31:25Z
2024-05-08T13:31:46Z,42.805,6.029,13.3040,4.60130,2470.684,2024-5-08T15:34:28Z
2024-05-08T13:34:49Z,42.805,6.029,13.3042,4.60130,2470.661,2024-5-08T15:37:31Z
2024-05-08T13:37:52Z,42.805,6.029,13.3041,4.60130,2470.624,2024-5-08T15:40:34Z
2024-05-08T13:40:55Z,42.805,6.029,13.3039,4.60130,2470.661,2024-5-08T15:43:37Z
2024-05-08T13:43:58Z,42.805,6.029,13.3041,4.60130,2470.646,2024-5-08T15:46:41Z
2024-05-08T13:47:01Z,42.805,6.029,13.3040,4.60129,2470.624,2024-5-08T15:49:44Z
2024-05-08T13:50:05Z,42.805,6.029,13.3036,4.60131,2470.624,2024-5-08T15:52:47Z
2024-05-08T13:53:08Z,42.805,6.029,13.3040,4.60131,2470.646,2024-5-08T15:55:50Z
2024-05-08T13:56:11Z,42.805,6.029,13.3041,4.60131,2470.661,2024-5-08T15:58:53Z
2024-05-08T13:59:14Z,42.805,6.029,13.3039,4.60130,2470.624,2024-5-08T16:01:56Z
2024-05-08T14:02:17Z,42.805,6.029,13.3039,4.60129,2470.624,2024-5-08T16:05:00Z
2024-05-08T14:05:20Z,42.805,6.029,13.3041,4.60130,2470.646,2024-5-08T16:08:03Z
2024-05-08T14:08:24Z,42.805,6.029,13.3041,4.60129,2470.661,2024-5-08T16:11:06Z
2024-05-08T14:11:27Z,42.805,6.029,13.3038,4.60131,2470.684,2024-5-08T16:14:09Z
2024-05-08T14:14:30Z,42.805,6.029,13.3038,4.60131,2470.624,2024-5-08T16:17:12Z
2024-05-08T14:17:33Z,42.805,6.029,13.3039,4.60130,2470.61,2024-5-08T16:20:15Z
2024-05-08T14:20:36Z,42.805,6.029,13.3043,4.60130,2470.637,2024-5-08T16:23:18Z
2024-05-08T14:23:39Z,42.805,6.029,13.3038,4.60131,2470.646,2024-5-08T16:26:21Z
2024-05-08T14:26:42Z,42.805,6.029,13.3039,4.60131,2470.67,2024-5-08T16:29:24Z
2024-05-08T14:29:45Z,42.805,6.029,13.3038,4.60131,2470.646,2024-5-08T16:32:27Z
2024-05-08T14:32:48Z,42.805,6.029,13.3042,4.60129,2470.646,2024-5-08T16:35:30Z
2024-05-08T14:35:51Z,42.805,6.029,13.3041,4.60131,2470.646,2024-5-08T16:38:33Z
2024-05-08T14:38:54Z,42.805,6.029,13.3041,4.60130,2470.646,2024-5-08T16:41:37Z
2024-05-08T14:41:58Z,42.805,6.029,13.3041,4.60131,2470.646,2024-5-08T16:44:40Z
2024-05-08T14:45:01Z,42.805,6.029,13.3043,4.60130,2470.661,2024-5-08T16:47:43Z
2024-05-08T14:48:04Z,42.805,6.029,13.3037,4.60129,2470.67,2024-5-08T16:50:46Z
2024-05-08T14:51:07Z,42.805,6.029,13.3042,4.60131,2470.646,2024-5-08T16:53:49Z
2024-05-08T14:54:10Z,42.805,6.029,13.3039,4.60129,2470.67,2024-5-08T16:56:52Z
2024-05-08T14:57:13Z,42.805,6.029,13.3044,4.60130,2470.646,2024-5-08T16:59:55Z
2024-05-08T15:00:16Z,42.805,6.029,13.3041,4.60130,2470.661,2024-5-08T17:02:58Z
2024-05-08T15:03:19Z,42.805,6.029,13.3041,4.60130,2470.656,2024-5-08T17:06:01Z
2024-05-08T15:06:22Z,42.805,6.029,13.3043,4.60131,2470.646,2024-5-08T17:09:04Z
2024-05-08T15:09:25Z,42.805,6.029,13.3039,4.60131,2470.67,2024-5-08T17:12:07Z